Location: Newark
(7.0858°N, 171.3717°E)
Time: 19:09:33
(UTC+00:00)

Tiros 1 - Pass Details

Date: 01 December 2020
Orbit: 630 x 663 km, 48.4° (Epoch: 18 January)

Event Time Altitude Azimuth Distance (km) Brightness Sun altitude
Rises 23:49:12 0° 215° (SW) 2,961 10.8 59.7°
Reaches altitude 10° 23:51:33 10° 212° (SSW) 2,055 10.2 59.9°
Maximum altitude 23:56:16 70° 129° (SE) 696 9.1 60.1°
Drops below altitude 10° 00:01:01 10° 45° (NE) 2,067 9.7 60.4°
Sets 00:03:23 0° 43° (NE) 2,979 10.4 60.5°
